{"data":{"norad_id":61253,"intl_designator":"2024-175L","name":"STARLINK-11311 [DTC]","alt_names":[],"object_type":"PAYLOAD","status":"ACTIVE","operator":null,"country":"US","launch_date":"2024-09-25","launch_site_code":"AFWTR","launch_vehicle":null,"mission":null,"orbit_class":"UNKNOWN","rcs_meters":null,"size_class":null,"mass_kg":null,"dimensions":null,"purposes":["comms"],"wikipedia_slug":null,"has_3d_model":false,"image_url":null,"decayed_at":null,"tle_current":{"epoch":"2026-09-21T11:19:09.520608Z","epoch_age_seconds":108153,"freshness":"FRESH","line1":"1 61253U 24175L   26264.47163797  .00000114  00000+0  58004-5 0  9997","line2":"2 61253  53.1574 171.3193 0001129  88.4088 271.7059 15.69705361115324","mean_motion":15.69705361,"eccentricity":0.0001129,"inclination_deg":53.1574,"raan_deg":171.3193,"arg_perigee_deg":88.4088,"mean_anomaly_deg":271.7059,"bstar":5.8004e-6,"rev_number":11532,"period_min":91.736961329012,"perigee_km":358.97931917858,"apogee_km":360.50073181094,"semimajor_km":6737.8770254948,"source":"CELESTRAK","updated_at":"2026-09-22T09:00:49.349586Z"}}}